Lid_Strength_Index
11 9 9 10 10 10 12 12 13 12 13 11 10 8 7 7 6 6 7 6 5 5 4 4 4 3 3 2 2 2 2 2 2 1 1 1 1 1 1 1 1 1 1 1
12 9 9 10 9 9 11 12 12 12 13 9 8 7 7 7 6 6 6 6 6 5 4 4 4 3 3 3 2 2 2 2 2 2 1 1 1 1 1 1 1 1 1 2
12 9 10 13 11 10 10 10 11 13 11 8 9 7 7 7 6 6 6 5 5 5 4 4 3 3 3 3 2 2 2 2 2 2 2 2 1 1 1 1 1 1 1 2
12 11 16 11 8 8 10 9 9 10 9 8 7 6 6 6 6 5 5 5 4 5 4 3 3 3 2 2 2 3 3 2 2 2 2 2 2 2 2 1 1 2 2 2
13 15 12 10 8 9 10 11 8 9 8 7 6 6 7 5 5 5 4 4 4 4 3 3 3 2 3 3 3 3 3 3 2 2 2 2 2 2 2 2 2 2 2 2
13 15 16 11 7 6 7 13 7 8 8 7 7 11 9 5 4 4 3 5 5 3 4 3 3 2 3 3 3 3 3 2 2 3 2 2 2 2 3 2 2 1 2 2
14 15 12 8 7 6 14 13 7 7 7 7 8 7 6 4 4 4 4 3 4 4 3 3 3 3 3 3 3 2 2 2 2 3 4 3 3 2 3 2 2 2 2 3
14 15 16 7 7 11 8 7 6 6 6 6 6 6 5 4 4 4 4 4 3 3 3 3 2 2 3 3 2 2 2 2 2 3 3 4 4 3 2 2 2 3 3 5
12 12 8 7 7 6 5 6 6 5 5 5 5 5 5 5 5 5 5 4 3 3 3 3 3 3 4 3 2 2 2 3 2 3 2 4 5 4 2 2 3 3 3 5
10 9 8 6 6 5 5 5 5 5 4 5 5 5 5 5 5 5 4 3 3 3 4 4 3 2 2 2 2 2 3 3 3 3 3 3 3 5 3 2 3 3 3 3
10 9 7 6 6 5 5 4 4 5 5 5 5 5 5 5 5 4 4 3 3 4 4 4 3 3 2 2 2 3 3 3 3 3 3 3 3 5 5 3 3 2 3 2
11 8 8 9 8 7 7 6 5 6 6 6 5 5 4 4 4 4 4 3 4 4 4 3 3 3 2 2 2 2 3 3 3 3 4 4 2 2 10 10 12 12 11 5
10 9 9 8 6 6 7 7 6 6 7 8 8 7 6 5 4 4 4 4 4 4 4 4 3 3 3 2 2 2 3 3 3 5 4 4 4 3 3 5 10 11 13 12
6 8 8 7 7 6 6 5 6 5 5 4 4 4 4 4 4 4 4 4 3 3 3 3 3 3 3 2 2 2 2 6 3 3 3 4 3 3 3 3 4 3 8 10
5 5 5 5 4 4 4 5 5 5 5 4 3 4 4 4 4 4 3 3 3 4 3 3 3 3 3 2 2 2 3 3 3 3 2 3 3 3 3 3 3 3 4 8
5 5 5 5 5 4 4 4 5 5 4 4 4 4 4 4 4 4 3 3 4 4 3 3 3 3 2 2 3 4 4 5 5 4 3 2 3 3 3 3 3 3 3 3
6 7 6 6 6 5 5 4 4 5 4 4 4 3 3 4 4 4 3 3 3 3 3 3 3 2 2 3 3 4 5 5 5 4 3 3 3 3 3 3 3 3 3 2
5 5 5 5 5 5 5 4 4 4 4 4 3 3 4 4 5 4 3 3 3 3 2 2 2 3 3 3 4 5 5 5 5 4 2 3 3 3 3 3 4 3 3 3
4 4 4 4 4 4 4 4 4 4 3 3 4 4 4 4 4 3 3 3 4 4 3 2 3 2 3 2 2 3 4 4 3 2 2 4 3 2 3 3 3 3 3 5
4 4 3 4 3 4 4 3 3 4 3 3 3 4 4 4 3 3 3 4 3 3 3 4 4 4 4 4 3 3 3 4 5 4 3 3 3 3 3 5 3 3 4 6
4 4 4 4 4 3 3 3 3 4 3 3 4 4 4 3 3 3 4 4 3 4 3 4 4 5 4 3 3 2 2 2 3 4 4 3 3 3 3 2 2 3 4 6
4 4 4 4 4 4 3 3 3 3 3 3 3 3 4 4 3 3 3 3 3 4 4 5 5 3 3 3 3 3 2 2 2 2 2 2 3 3 3 3 3 3 4 5
4 4 4 4 4 4 3 3 3 3 3 3 3 4 4 4 4 4 4 3 3 5 4 4 4 4 4 4 3 2 2 2 2 2 2 2 2 2 2 3 2 2 4 5
4 4 4 3 3 4 4 4 3 3 3 3 3 3 4 4 3 2 2 3 4 4 3 4 4 4 5 3 3 2 2 2 2 3 3 5 2 2 2 2 2 2 3 6
4 4 4 4 4 4 4 3 4 4 3 3 3 2 3 2 3 2 2 2 4 3 3 4 4 4 3 3 2 2 2 2 3 2 3 2 2 2 2 2 2 2 2 5
4 4 4 4 4 3 4 3 4 4 4 4 3 3 3 3 3 3 2 2 2 3 2 2 3 3 4 3 3 2 2 2 3 2 3 2 2 2 2 2 2 2 1 1
4 5 4 4 3 4 3 4 4 4 4 4 3 2 2 2 3 3 3 3 3 3 3 3 3 3 3 4 3 2 1 2 5 4 3 2 1 2 2 2 2 2 1 1